DB0WGS-1 Weather Reports


time (UTC)temp
C
wind
direction
speed
KPH
gust
KPH
rain 1hr
cm
rain 24hr
cm
rain mn
cm
humidity
%
barometer
mb
20260505110913 -40 9.7 16.1 0.00 0.00 0.00 14 1006.3
20260505102049 -40 8.0 14.5 0.00 0.00 0.00 14 1006.7
20260505100843 -40 8.0 16.1 0.00 0.00 0.00 14 1006.8
20260505095637 -40 9.7 20.9 0.00 0.00 0.00 14 1006.9
20260505094431 -40 11.3 16.1 0.00 0.00 0.00 14 1007.0
20260505093224 -40 11.3 17.7 0.00 0.00 0.00 14 1007.1
20260505092018 -40 9.7 16.1 0.00 0.00 0.00 14 1007.2
20260505090813 -40 11.3 17.7 0.00 0.00 0.00 14 1007.3
20260505085606 -40 11.3 16.1 0.00 0.00 0.00 14 1007.4
20260505084401 -40 11.3 16.1 0.00 0.00 0.00 14 1007.3
20260505083154 -40 11.3 16.1 0.00 0.00 0.00 14 1007.3
20260505081952 -40 9.7 16.1 0.00 0.00 0.00 14 1007.3
20260505080747 -40 9.7 14.5 0.00 0.00 0.00 14 1007.4
20260505075536 -40 8.0 14.5 0.00 0.00 0.00 14 1007.5
20260505074329 -40 6.4 12.9 0.00 0.00 0.00 14 1007.6
20260505073128 -40 4.8 12.9 0.00 0.00 0.00 14 1007.6
20260505071918 -40 4.8 8.0 0.00 0.00 0.00 14 1007.6
20260505070711 -40 4.8 8.0 0.00 0.00 0.00 14 1007.5
20260505065505 -40 3.2 8.0 0.00 0.00 0.00 14 1007.6
20260505064301 -40 4.8 8.0 0.00 0.00 0.00 14 1007.7
20260505063053 -40 3.2 6.4 0.00 0.00 0.00 14 1007.7
20260505061847 -40 1.6 4.8 0.00 0.00 0.00 14 1007.7
20260505060641 -40 1.6 4.8 0.00 0.00 0.00 14 1007.8
20260505055435 -40 3.2 4.8 0.00 0.00 0.00 14 1007.8
20260505054230 -40 4.8 6.4 0.00 0.00 0.00 14 1007.9
20260505053022 -40 4.8 6.4 0.00 0.00 0.00 14 1007.8
20260505051816 -40 1.6 4.8 0.00 0.00 0.00 14 1007.7
20260505050613 -40 1.6 4.8 0.00 0.00 0.00 14 1007.7
20260505041746 -40 1.6 6.4 0.00 0.00 0.00 14 1007.9
20260505040540 -40 1.6 4.8 0.00 0.00 0.00 14 1008.0
20260505035334 -40 1.6 3.2 0.00 0.00 0.00 14 1008.0
20260505034128 -40 1.6 4.8 0.00 0.00 0.00 14 1008.0
20260505032922 -40 1.6 4.8 0.00 0.00 0.00 14 1008.1
20260505031718 -40 1.6 4.8 0.00 0.00 0.00 14 1008.2
20260505030509 -40 3.2 6.4 0.00 0.00 0.00 14 1008.3
20260505025305 -40 1.6 4.8 0.00 0.00 0.00 14 1008.4
20260505024057 -40 1.6 4.8 0.00 0.00 0.00 14 1008.5
20260505022853 -40 3.2 6.4 0.00 0.00 0.00 14 1008.6
20260505021652 -40 4.8 8.0 0.00 0.00 0.00 14 1008.7
20260505020440 -40 4.8 8.0 0.00 0.00 0.00 14 1008.8
20260505015233 -40 8.0 9.7 0.00 0.00 0.00 14 1008.8
20260505014027 -40 8.0 12.9 0.00 0.00 0.00 14 1008.8
20260505012821 -40 3.2 6.4 0.00 0.00 0.00 14 1008.8
20260505011615 -40 3.2 6.4 0.00 0.00 0.00 14 1008.9
20260505010411 -40 3.2 6.4 0.00 0.00 0.00 14 1009.1
20260505005203 -40 6.4 8.0 0.00 0.00 0.00 14 1009.2
20260505003956 -40 8.0 12.9 0.00 0.00 0.00 14 1009.3
20260505002751 -40 9.7 12.9 0.00 0.00 0.00 14 1009.3
20260505001545 -40 8.0 12.9 0.00 0.00 0.00 14 1009.3
20260505000338 -40 8.0 12.9 0.00 0.00 0.00 14 1009.3
20260504235132 -40 6.4 12.9 0.00 0.00 0.00 14 1009.3
20260504233926 -40 1.6 6.4 0.00 0.00 0.00 14 1009.3
20260504232720 -40 1.6 4.8 0.00 0.00 0.00 14 1009.3
20260504231515 -40 3.2 6.4 0.00 0.00 0.00 14 1009.3
20260504230307 -40 1.6 6.4 0.00 0.00 0.00 14 1009.4
20260504225102 -40 3.2 6.4 0.00 0.00 0.00 14 1009.5
20260504223856 -40 3.2 8.0 0.00 0.00 0.00 14 1009.6
20260504222739 -40 4.8 14.5 0.00 0.00 0.00 14 1009.5
20260504222650 -40 4.8 14.5 0.00 0.00 0.00 14 1009.5
20260504221443 -40 11.3 20.9 0.00 0.00 0.00 14 1009.4
20260504220237 -40 6.4 14.5 0.00 0.00 0.00 14 1009.4
20260504215031 -40 8.0 35.4 0.00 0.00 0.00 14 1009.6
20260504213826 -40 16.1 40.2 0.00 0.00 0.00 14 1010.4
20260504212620 -40 4.8 19.3 0.00 0.00 0.00 14 1010.7
20260504211413 -40 4.8 17.7 0.00 0.00 0.00 14 1011.1
20260504210208 -40 12.9 32.2 0.00 0.00 0.00 14 1011.2
20260504205001 -40 11.3 20.9 0.00 0.00 0.00 14 1011.1
20260504203755 -40 4.8 14.5 0.00 0.00 0.00 14 1010.8
20260504202549 -40 6.4 19.3 0.00 0.00 0.00 14 1010.6
20260504201343 -40 11.3 17.7 0.00 0.00 0.00 14 1011.1
20260504200137 -40 16.1 25.7 0.00 0.00 0.00 14 1011.2
20260504194930 -40 19.3 27.4 0.00 0.00 0.00 14 1011.1
20260504193725 -40 8.0 17.7 0.00 0.00 0.00 14 1011.3
20260504192552 -40 9.7 20.9 0.00 0.00 0.00 14 1011.1
20260504192519 -40 9.7 20.9 0.00 0.00 0.00 14 1011.1
20260504191313 -40 9.7 20.9 0.00 0.00 0.00 14 1010.8
20260504190106 -40 8.0 19.3 0.00 0.00 0.00 14 1010.7
20260504184900 -40 9.7 19.3 0.00 0.00 0.00 14 1010.4
20260504183654 -40 11.3 16.1 0.00 0.00 0.00 14 1010.2
20260504182447 -40 9.7 20.9 0.00 0.00 0.00 14 1010.0
20260504181242 -40 11.3 20.9 0.00 0.00 0.00 14 1009.9
20260504180036 -40 3.2 14.5 0.00 0.00 0.00 14 1009.8
20260504174831 -40 4.8 8.0 0.00 0.00 0.00 14 1009.9
20260504173623 -40 3.2 4.8 0.00 0.00 0.00 14 1009.9
20260504172418 -40 1.6 4.8 0.00 0.00 0.00 14 1009.8
20260504171211 -40 1.6 4.8 0.00 0.00 0.00 14 1009.9
20260504151110 -40 4.8 12.9 0.00 0.00 0.00 14 1010.8
20260504141042 -40 4.8 12.9 0.00 0.00 0.00 14 1011.3